OBJECT D, 65944

Orbit data source: Space-Track

You're viewing an Uncataloged Satellite

Recently launched and/or uncataloged satellites may have evolving metadata. Metadata may include but not limited to: Owner, Maufacturer, Bus, Motor, and Mission.

OBJECT D, 65944 is a satellite owned by CASC (CN) in SSO that was launched on Sat, 11 Oct 2025 UTC launched from the Yellow Sea Launch Area, China (YSLA). Unknown objects in Earth's orbit typically refer to objects detected orbiting the Earth but have not yet been identified or cataloged. These objects could be anything from previously untracked satellites, spent rocket stages, debris from satellite collisions, or even natural meteoroids temporarily captured by Earth's gravity.

Loading next visibility...
Identifier
65944, 2025-226D
Orbit
SSO
Country
Flag of CNCN / PRC
Related business
Manufacturer
CALT
Mission
Spacecraft
Bus & Motor
Unknown
Mass
1,000 kg wet, 1,000 kg dry
Launch date (UTC)
2025-10-11 (1 week ago)
Launch vehicle
Unknown
Launch site
Yellow Sea Launch Area, China (YSLA)
Object type
Unknown
Shape & HBR
Unknown
Radar Cross Section
RCS unknown

Expand to show TLE details & history
Last TLE update: 4 days ago

TLE from 4 days ago
0 OBJECT D
1 65944U 25226D   25286.85282750  .00003276  00000-0  18218-3 0  9996
2 65944  97.6603   1.0180 0018611 306.1927  53.7583 15.14266696   407
Epoch: 2025-10-13T20:28Z
TLE epoch observation values (Epoch: 2025-10-13T20:28:04.296Z)
Latitude
0.00004°
Longitude
31.35044°
Altitude
518.701 km
Speed
7.608 km/s
True Right ascension
00h 04m 04s
True Declination
0° 00' 00"
Sunlit
Object was in full shadow at epoch
Visualization orbit readout
Latitude
Unknown
Longitude
Unknown
Altitude
Unknown
Speed
Unknown
Apparent Right ascension
Unknown
Apparent Declination
Unknown
Sunlit
N/A
Visualization observer readout
Local Sidereal Time
21:24:05
Azimuth
Unknown
Elevation
Unknown
Doppler factor
Unknown
Orbital elements
Apogee altitude
533.029 km
Perigee altitude
507.352 km
Semi-major axis
6,898.327 km
Eccentricity
0.00186
Inclination
97.6603°
RAAN
1.018°
Arg. of periapsis
306.1927°
True anomaly
53.93054°
Mean anomaly
53.7583°
Eccentric anomaly
53.8444°
Mean motion
3.78815 °/min
Orbital period
95.03 mins
BSTAR
0.00018218
Loading maneuver chart data...
Computing Atmospheric mass density...
Loading historical data...
Loading historical data...
Loading historical data...
Loading historical data...
Loading historical data...
Loading historical data...
Loading historical data...
Other satellites on launch #226 in the year 2025 (2025-10-11 UTC)

Documentation

Showing up to 5 results
|